Dewpoint
37 21 17 19 21 28 39 37 37 38 37 35 33 27 20 18 18 16 17 16 30 18 10 17 18 18 18 19 22 22 24 22 20 20 33 31 30 30 31 32 34 37 36 41 43 49 50 50 51 51 50 50 50 50 51 52 52 54 55 55 54 55 56 55 55 55 54 53 43 47 53 45 46 51 56 55 54 55 56 56 56 56 59 57 58 59
32 22 25 27 30 33 40 39 38 39 36 34 30 26 17 18 18 18 23 28 26 25 20 20 19 18 20 25 26 26 22 23 23 21 25 31 30 28 29 30 31 35 37 41 43 49 50 49 52 51 50 51 49 49 50 50 51 54 55 54 55 55 55 56 55 52 51 51 49 46 47 47 46 49 53 52 52 53 57 56 57 58 59 56 56 59
26 25 32 35 40 41 41 37 38 34 32 33 24 22 18 16 15 20 37 32 28 31 26 24 21 25 25 24 23 24 27 24 24 25 22 26 30 29 28 29 31 33 36 42 41 49 49 51 51 51 51 50 48 48 50 50 51 55 54 54 56 54 54 55 53 48 49 53 53 51 50 50 49 52 54 52 53 57 54 54 56 57 55 54 53 54
29 29 32 34 38 34 37 35 35 35 34 25 25 22 19 22 18 15 31 36 35 32 28 27 24 27 30 28 25 27 24 26 31 32 32 28 27 29 29 31 32 31 35 42 41 46 48 50 50 50 51 50 50 49 49 51 51 55 55 54 55 53 54 54 54 51 53 54 54 54 53 54 53 51 57 54 55 53 52 50 52 56 54 52 53 55
25 35 38 39 36 36 33 36 32 26 24 33 32 27 23 27 24 20 24 35 33 37 34 28 29 27 28 21 19 19 21 28 32 28 29 34 32 34 37 36 36 34 37 41 41 44 48 49 49 50 51 52 51 50 49 52 52 55 55 56 54 53 54 52 57 53 54 55 54 52 53 55 53 53 51 49 45 52 54 53 53 51 52 52 53 52
20 32 40 36 35 32 33 29 32 31 23 26 32 31 30 32 28 25 31 29 24 24 34 32 21 26 26 21 19 18 21 21 27 25 25 26 29 31 31 31 38 42 35 33 42 43 47 49 50 50 51 52 52 53 51 53 55 55 55 57 55 54 54 52 53 53 53 55 53 53 52 52 51 49 46 46 47 48 48 49 52 54 54 53 52 52
26 38 37 36 35 32 30 31 33 33 25 23 27 33 33 28 29 28 27 24 19 15 26 34 19 21 27 22 23 22 16 15 25 24 24 25 26 25 27 29 30 35 41 42 42 43 46 48 50 51 51 51 53 53 54 55 55 55 55 58 56 54 53 53 53 54 55 55 55 55 54 54 53 49 48 49 51 51 50 52 50 52 55 52 51 54
29 35 32 34 32 34 30 23 32 28 24 21 32 32 28 29 31 31 27 22 21 27 31 28 23 17 17 17 22 25 22 17 20 23 24 25 26 25 25 25 28 28 38 36 44 43 45 46 50 51 51 51 53 53 55 55 55 55 55 57 56 54 54 52 52 53 54 55 56 56 55 54 53 48 49 51 51 52 55 52 51 53 53 55 54 54
37 34 35 33 30 23 21 30 33 33 24 24 31 30 30 31 31 32 24 21 22 18 18 21 27 18 20 21 23 23 22 19 19 23 22 22 24 25 25 25 25 30 36 36 43 43 45 45 48 51 51 52 53 54 54 55 55 56 56 57 56 54 54 50 52 53 54 56 54 50 50 50 52 50 50 52 52 49 53 51 53 52 49 53 49 50
33 31 31 33 26 21 29 19 19 31 26 30 33 35 34 34 32 30 21 19 22 16 18 21 29 18 18 23 20 21 21 21 18 20 22 21 22 24 25 27 28 30 33 35 43 43 45 45 46 49 51 52 53 55 55 55 55 56 56 56 56 54 54 50 52 52 52 55 54 49 49 50 49 51 51 50 50 51 49 50 51 51 51 52 51 52
23 32 37 27 28 24 22 23 29 22 25 31 28 27 19 25 23 22 21 18 18 13 18 24 27 22 15 21 22 23 27 21 20 22 22 22 22 22 24 27 31 31 34 36 40 44 45 46 46 47 48 51 53 54 55 55 54 56 55 56 56 55 55 51 52 51 51 53 52 49 50 50 47 50 50 50 48 50 48 50 49 51 51 54 54 55
15 12 23 23 26 18 17 22 23 15 19 30 25 22 17 17 19 19 18 19 11 13 19 20 23 28 16 17 22 20 22 23 28 26 25 24 22 22 24 25 26 30 33 35 38 44 45 47 47 48 47 50 53 54 55 55 55 55 55 56 56 55 55 53 52 51 51 52 52 51 50 51 48 49 48 49 45 50 48 50 50 49 51 49 51 51
20 18 21 20 25 14 21 9 9 9 24 20 19 14 12 14 15 15 14 12 15 14 21 21 24 22 20 18 23 19 18 16 23 28 29 28 25 24 24 24 23 29 31 34 37 42 46 46 48 48 48 49 52 53 54 55 55 55 55 56 55 55 55 53 52 50 50 51 51 50 51 50 51 49 48 49 47 51 48 49 48 50 48 49 50 50
22 21 17 20 19 17 11 9 8 5 13 17 13 19 13 10 9 7 15 17 18 23 30 22 30 21 23 18 19 21 24 24 26 23 19 21 26 26 24 26 26 28 30 34 38 38 46 46 47 48 49 49 52 52 54 56 55 56 55 56 55 55 55 54 52 50 50 51 50 51 51 50 53 49 50 49 50 50 50 50 49 49 49 49 49 49
16 17 23 24 22 16 10 5 15 18 18 13 12 11 16 13 14 8 10 9 14 19 23 29 16 20 13 23 25 25 26 23 21 24 27 25 27 30 26 24 27 25 28 35 37 37 45 46 46 47 49 49 51 52 54 56 56 56 55 55 56 55 55 54 52 52 50 51 50 51 52 51 52 51 51 51 51 51 50 50 50 50 49 48 49 48
11 17 22 14 15 15 7 5 7 11 10 16 22 12 13 18 19 8 16 16 17 18 20 15 17 18 18 25 21 22 21 20 22 21 27 26 26 32 28 26 25 27 27 31 35 38 44 45 45 46 48 49 51 52 54 56 57 57 56 55 56 56 55 54 53 52 52 51 50 52 52 52 53 53 52 51 51 52 50 50 49 50 49 49 50 49
16 16 21 12 14 12 10 10 8 10 13 34 11 17 17 20 19 18 20 24 19 21 18 17 18 20 24 18 20 23 21 20 22 20 21 26 27 29 29 29 26 28 22 32 33 39 43 45 45 46 47 49 51 52 55 56 57 57 56 56 56 56 55 54 53 52 53 52 51 52 52 52 52 51 51 50 49 50 51 50 49 49 50 50 49 50
18 19 18 12 13 10 9 12 15 14 15 16 13 16 13 10 31 23 17 17 15 12 15 15 15 19 15 20 16 17 19 21 19 21 21 29 30 28 32 29 26 21 24 32 36 42 43 45 45 46 48 49 51 53 56 57 57 57 57 56 56 56 55 55 54 52 53 52 51 51 51 51 51 50 50 50 49 49 50 49 50 49 49 48 49 50
21 17 18 15 13 11 10 9 13 15 14 13 12 12 14 21 14 22 12 6 6 9 10 14 17 17 15 16 16 17 18 21 29 31 21 23 30 36 32 28 27 28 29 27 38 42 44 45 45 47 47 51 52 53 56 57 58 58 57 57 56 56 55 55 54 53 53 52 52 52 51 51 51 50 50 50 50 50 49 49 49 49 49 49 49 49
29 18 21 20 16 14 16 15 16 22 12 13 12 10 13 12 20 11 19 17 14 12 7 13 14 14 19 16 18 16 27 25 25 28 29 32 32 31 32 34 34 34 31 34 33 41 44 44 46 46 48 51 53 56 56 57 57 57 57 56 56 56 55 55 54 53 52 52 52 52 51 51 50 50 49 49 49 49 49 49 49 49 49 49 49 47
20 22 20 20 18 18 15 15 18 13 15 16 16 19 20 22 25 18 26 15 13 14 13 12 13 15 22 26 24 28 29 28 27 32 32 35 36 35 34 35 36 36 36 38 35 36 44 45 46 47 48 51 53 55 56 56 57 57 57 56 56 55 54 54 54 53 52 52 52 52 51 50 50 49 49 49 49 49 49 49 49 49 48 49 47 47
24 24 19 24 21 20 18 15 12 14 14 18 15 17 15 19 15 14 17 26 29 23 18 18 18 22 25 27 27 31 31 30 28 29 34 30 35 37 36 35 36 38 37 35 34 38 40 45 47 47 48 49 51 53 55 56 56 56 57 56 56 55 54 54 54 53 52 52 52 52 51 50 50 49 49 48 49 49 49 49 48 48 48 46 47 47
31 28 19 18 17 17 16 15 14 13 12 11 16 14 15 23 24 21 14 20 26 25 26 23 21 20 28 27 32 31 28 30 29 30 33 36 36 36 38 35 34 36 37 36 35 35 38 42 45 46 47 46 48 50 52 55 56 56 56 55 55 55 54 55 54 52 52 51 51 51 51 50 50 50 48 48 48 48 49 48 48 49 47 47 47 47
34 21 21 20 17 15 13 11 11 11 9 12 21 26 20 21 23 23 23 22 19 21 20 20 19 23 27 32 32 29 29 27 28 28 27 31 31 31 35 34 36 34 36 37 38 36 37 37 41 44 45 44 45 47 51 55 56 56 56 55 54 54 53 54 53 52 51 51 51 51 51 50 50 49 49 48 48 48 48 48 48 48 47 47 47 47
21 27 23 22 19 19 21 19 17 16 20 21 15 20 25 22 25 26 26 25 20 23 21 22 18 22 28 32 27 25 25 25 24 26 25 24 24 25 25 27 35 36 34 35 35 36 37 35 38 39 39 40 44 47 53 55 55 56 55 54 53 53 52 53 53 51 50 50 50 50 50 50 50 49 49 48 48 48 48 48 48 48 47 47 46 47
24 26 22 17 13 12 8 7 10 14 14 13 20 19 18 15 21 19 17 19 15 23 23 21 22 25 26 27 25 25 22 23 25 24 24 25 24 24 25 26 26 27 33 36 36 35 37 37 36 39 41 43 49 52 53 54 54 54 54 53 52 52 51 52 52 50 50 50 49 49 49 49 49 49 48 48 48 48 48 48 47 47 47 47 46 45
24 27 24 22 21 19 19 18 22 18 14 10 14 14 16 18 20 21 19 15 16 20 17 22 22 22 21 21 21 22 25 24 23 24 24 23 24 25 22 22 22 23 23 25 33 35 36 37 37 37 40 45 49 50 52 52 51 52 51 50 49 50 50 51 51 50 49 49 49 49 49 49 48 49 48 48 48 48 48 47 47 47 46 47 46 45
23 19 25 25 24 21 19 15 13 9 9 12 15 17 17 22 23 20 13 17 21 16 13 19 22 19 18 18 18 20 23 25 26 26 25 26 26 22 20 20 28 20 20 22 22 29 35 34 35 37 38 43 44 45 49 50 49 50 50 49 49 49 49 51 51 49 48 48 48 48 49 49 48 48 48 48 48 47 47 47 46 46 46 45 43 43
23 18 25 22 20 17 16 15 15 15 15 16 15 17 17 21 22 17 16 21 21 15 15 18 21 18 17 16 17 21 22 23 24 26 26 25 22 21 21 21 21 22 23 23 23 22 29 37 38 37 38 42 45 45 48 48 49 47 49 49 48 50 49 50 50 49 48 48 48 48 48 49 48 48 47 47 47 47 46 46 45 44 44 43 43 44
22 21 24 20 19 19 17 17 18 15 16 14 17 17 18 21 18 18 17 18 18 17 19 18 18 19 20 17 15 20 24 25 24 25 23 21 21 24 26 27 27 27 27 27 25 24 26 30 33 36 38 38 42 44 44 45 46 48 48 48 48 48 49 49 49 48 47 47 47 48 48 48 48 47 46 46 45 45 44 44 44 43 43 43 42 40
20 18 22 23 16 18 20 18 14 14 18 17 18 19 20 20 18 19 18 18 21 19 20 19 18 19 19 22 22 23 25 23 23 20 20 25 31 32 30 29 28 29 29 29 30 30 31 35 38 40 40 39 40 42 44 45 45 44 45 47 48 49 48 48 48 47 46 46 47 48 48 47 46 46 45 44 44 43 43 43 43 43 42 41 41 40
22 21 23 21 15 15 19 18 16 17 16 15 16 18 19 18 17 17 17 18 14 16 17 17 17 17 16 18 21 22 22 23 23 24 29 33 33 32 31 31 30 29 28 28 29 29 30 30 38 42 41 42 43 44 44 46 47 46 48 47 48 49 49 47 47 46 45 45 46 45 45 44 44 44 43 43 42 42 42 42 42 41 40 40 39 39
21 19 18 19 15 13 16 20 19 18 15 12 14 16 17 18 19 20 22 24 22 19 16 17 19 18 17 21 23 24 25 28 29 30 30 32 33 32 32 31 30 29 29 28 30 33 33 33 35 41 44 44 44 44 47 47 47 48 49 48 50 49 49 49 48 45 44 45 44 43 43 43 43 42 42 42 42 41 41 41 40 39 38 37 39 39
21 22 20 18 14 13 18 20 18 14 9 10 12 24 22 19 20 20 20 21 22 23 21 21 19 21 23 24 26 30 30 30 32 33 33 31 30 31 30 30 31 32 34 35 36 36 36 36 37 38 42 44 45 46 48 49 47 49 49 49 49 49 48 47 45 43 43 43 43 42 42 42 41 40 40 40 40 40 39 39 38 38 37 38 38 37
20 20 20 18 14 15 14 14 12 9 10 15 19 25 23 23 23 22 21 21 24 26 28 25 23 26 29 33 33 33 34 34 35 34 33 32 31 30 31 34 35 35 35 36 36 36 36 36 37 38 41 42 43 46 48 49 47 48 48 48 48 49 48 48 45 42 41 40 41 41 41 40 39 38 38 38 38 38 38 38 37 37 37 36 36 36
20 20 19 17 17 18 13 12 7 10 15 24 24 27 28 23 28 27 23 25 30 29 29 27 27 31 31 33 34 34 35 35 34 34 34 33 32 34 33 33 33 33 34 36 38 39 39 39 41 43 44 45 44 48 49 48 48 47 47 48 48 48 48 47 43 40 39 39 39 39 38 37 36 37 37 37 37 37 36 36 36 35 36 36 36 35
19 20 20 18 18 14 13 13 13 17 17 17 18 25 30 27 28 25 20 24 30 30 31 31 31 31 32 31 32 33 33 32 30 30 32 31 33 34 34 33 34 35 37 39 39 40 41 41 42 43 45 47 46 48 47 46 46 45 45 45 46 46 46 45 41 38 39 39 37 36 36 36 36 36 36 36 36 35 36 36 35 35 35 35 34 34
16 18 21 17 17 20 15 14 12 11 11 14 29 35 36 35 34 31 24 21 30 31 31 30 30 31 32 32 33 34 34 30 27 28 30 33 33 33 33 34 35 39 40 40 41 41 43 44 44 43 45 45 46 47 48 48 47 44 43 42 44 43 44 42 41 39 38 37 36 35 34 34 35 35 36 36 36 36 36 36 35 34 34 34 33 33
17 17 19 17 16 18 17 14 12 10 12 18 29 33 34 34 34 32 22 18 25 28 28 27 29 30 31 32 33 34 31 27 27 29 30 33 33 33 33 35 39 40 41 42 43 44 45 45 47 47 47 47 46 46 46 46 46 44 44 44 42 41 40 37 37 38 38 37 35 33 34 34 35 35 35 36 37 36 35 34 33 34 35 34 33 33
20 21 20 19 17 18 17 15 14 13 15 24 32 32 32 32 32 23 11 13 27 28 27 29 29 30 29 33 34 31 28 27 28 29 33 34 34 34 37 40 40 40 40 43 44 45 45 46 47 46 46 45 44 43 45 44 44 45 44 44 42 41 36 37 36 34 32 31 31 31 33 36 37 35 35 36 36 36 34 33 33 34 34 33 33 32
14 18 22 19 20 22 22 19 18 18 23 33 32 33 33 34 24 15 12 18 27 27 28 31 29 30 30 31 33 29 32 32 32 34 35 35 34 37 40 40 40 40 41 43 45 45 47 46 46 46 47 46 47 48 46 46 44 43 42 42 42 40 36 32 32 33 31 30 31 33 35 35 35 35 35 35 34 35 34 34 35 34 33 32 32 32
18 15 20 17 17 17 17 16 15 16 29 35 36 37 35 26 16 14 26 25 24 25 29 30 29 30 31 32 33 34 34 36 37 36 35 35 35 39 40 40 41 42 43 44 45 46 46 44 44 46 48 48 46 46 47 46 45 44 43 43 41 37 36 33 33 31 31 31 33 33 34 35 35 37 38 36 36 35 34 34 34 33 33 32 31 30
15 12 16 15 14 13 11 10 11 8 21 34 33 27 33 22 26 23 21 23 27 25 28 31 31 32 34 33 35 36 36 36 36 36 35 35 37 39 39 40 40 40 42 45 46 47 45 44 46 47 47 49 49 48 48 47 44 42 40 39 37 36 34 33 32 31 32 32 32 33 33 35 36 38 39 37 36 35 32 33 34 32 32 31 29 29
17 14 14 17 22 16 15 10 10 24 25 33 26 20 25 29 27 23 27 26 29 32 33 31 31 34 34 34 34 35 36 36 35 35 36 36 38 39 39 39 39 40 43 44 46 47 45 45 46 47 47 47 48 48 48 47 43 41 37 32 32 31 31 32 32 31 31 32 33 33 34 34 33 32 32 33 31 28 29 32 31 31 31 30 29 28
19 15 19 16 20 15 16 18 21 22 23 30 31 27 30 27 27 32 33 32 31 33 35 33 34 34 36 36 36 36 35 35 34 35 35 36 38 38 38 38 39 41 43 43 44 47 47 45 46 47 47 47 47 47 47 45 42 34 32 32 31 30 31 32 32 32 33 33 31 29 29 30 30 30 30 29 27 27 31 31 31 29 30 29 29 28
17 23 28 23 21 21 18 19 25 22 22 23 23 24 22 22 26 33 34 31 35 35 35 34 35 35 37 37 37 36 36 35 35 35 35 36 38 38 39 39 40 41 42 43 44 46 47 47 47 46 45 46 47 46 46 39 36 33 32 32 32 31 31 31 32 33 32 28 27 26 26 28 28 28 29 31 30 30 31 31 31 29 29 29 29 28
17 21 17 16 19 16 14 18 17 18 19 20 19 21 22 30 32 33 33 33 35 36 37 37 37 37 37 37 37 36 35 35 35 35 36 36 38 37 38 39 40 42 43 44 45 44 45 45 46 46 46 45 44 42 43 37 34 32 33 32 32 32 32 32 31 31 29 29 29 29 29 29 28 28 31 30 29 30 32 31 30 29 29 28 28 28
17 24 17 18 17 15 16 16 16 16 18 19 23 24 27 28 29 32 32 33 34 36 37 38 38 38 37 37 37 35 34 34 35 36 36 37 37 38 39 40 41 41 43 45 45 45 45 44 44 45 45 43 37 41 36 32 32 31 32 32 32 32 31 31 31 30 28 28 28 28 30 29 30 31 30 30 29 29 29 30 31 27 27 28 28 26
20 21 17 17 16 16 16 16 18 21 18 24 26 25 26 29 33 33 34 34 36 36 37 38 39 39 39 37 34 34 34 34 36 38 39 38 36 36 38 40 42 43 45 44 44 42 44 43 40 40 42 37 38 40 35 32 31 30 31 32 32 30 29 30 30 29 30 30 28 28 29 31 31 31 31 31 31 29 30 29 28 29 28 28 29 29
20 17 17 16 17 17 16 17 22 17 19 21 25 27 27 28 31 34 34 34 35 36 37 37 37 37 35 35 34 34 34 35 37 38 39 39 39 37 36 35 38 40 42 43 43 42 39 38 43 43 38 39 36 36 33 34 33 31 30 30 29 28 27 28 30 31 30 30 29 29 30 31 31 32 31 30 28 29 29 31 32 31 28 27 34 33
18 17 16 17 16 17 19 20 23 25 25 26 27 26 26 27 28 31 32 30 33 37 37 36 36 36 34 34 35 34 35 36 38 39 40 40 40 40 39 37 36 35 41 41 43 41 40 38 39 41 41 42 37 33 32 32 31 34 33 32 30 29 30 30 32 33 31 30 31 29 30 31 31 31 31 30 29 30 27 27 29 31 32 32 33 33